Location: Unspecified
(0.0000°N, 0.0000°E)
Time: 19:35:15
(UTC+00:00)

deb Briz - Pass Details

Date: 22 February 2026
Orbit: 1858 x 2172 km, 64.9° (Epoch: 11 March)

Event Time Altitude Azimuth Distance (km) Brightness Sun altitude
Rises 05:20:15 0° 231° (SW) 5,545 ? -13.1°
Reaches altitude 10° 05:24:34 10° 243° (WSW) 4,585 ? -12.0°
Maximum altitude 05:33:32 25° 293° (WNW) 3,593 ? -9.8°
Drops below altitude 10° 05:42:47 10° 342° (NNW) 4,682 ? -7.6°
Sets 05:47:23 0° 356° (N) 5,686 ? -6.4°
